This demonstration page uses our WeatherBlox Daily Observations layout. Learn more.

Left ArrowRight Arrow

41.86663, -103.66717

Hourly Observations for May 16, 2021

Temp ( °F °C ) Dew Point ( °F °C ) Humidity (%) Winds ( mph kmh ) Pressure ( in mb ) Visibility ( mi km ) Precip ( " mm )
12:34 am 00:34 Mostly Cloudy with Nearby Thunderstorms 55 13 52 11 88 88 E 7 11 29.89 1012 10 16.0934 N/A
12:41 am 00:41 Mostly Cloudy with Nearby Thunderstorms 56 13.3 51 10.6 84 84 E 7 11 29.88 1012 9 14.48406 N/A
12:50 am 00:50 Mostly Cloudy with Thunderstorms 55 13 52 11 88 88 E 6 9 29.88 1012 9 14.48406 N/A
12:53 am 00:53 Mostly Cloudy with Thunderstorms 56 13.3 51 10.6 84 84 SE 5 7 29.88 1012 9 14.48406 N/A
1:07 am 01:07 Mostly Cloudy with Heavy Thunderstorms 56 13.3 52 11.1 87 87 S 10 17 29.89 1012 1.75 2.816345 0.07 1.778
1:17 am 01:17 Cloudy with Thunderstorms 60 15.6 53 11.7 78 78 SE 7 11 29.83 1010 3 4.82802 0.2 5.08
1:27 am 01:27 Cloudy with Light Thunderstorms 57 13.9 54 12.2 90 90 W 13 20 29.87 1011 6 9.65604 0.22 5.588
1:34 am 01:34 Cloudy with Rain 56 13.3 53 11.7 90 90 WSW 8 13 29.88 1012 4 6.43736 0.25 6.35
1:44 am 01:44 Cloudy with Light Thunderstorms 56 13.3 53 11.7 90 90 SSW 7 11 29.88 1012 3 4.82802 0.27 6.858
1:53 am 01:53 Cloudy with Thunderstorms 56 13.3 53 11.7 90 90 S 5 7 29.87 1012 5 8.0467 0.27 6.858
2:03 am 02:03 Cloudy with Nearby Thunderstorms 56 13.3 53 11.7 90 90 N N/A 29.88 1012 6 9.65604 N/A
2:41 am 02:41 Cloudy with Light Rain 56 13.3 53 11.7 90 90 undefined N/A 29.87 1011 4 6.43736 0.01 0.254
2:53 am 02:53 Cloudy with Light Rain 56 13.3 52 11.1 87 87 N 9 15 29.87 1011 7 11.26538 0.01 0.254
3:29 am 03:29 Mostly Cloudy 54 12.2 50 10 87 87 N 7 11 29.88 1012 10 16.0934 0.001 0.001
3:53 am 03:53 Mostly Cloudy 53 11.7 49 9.4 86 86 N 12 19 29.88 1012 10 16.0934 0.001 0.001
4:53 am 04:53 Cloudy 52 11.1 48 8.9 86 86 NNE 13 20 29.9 1012 10 16.0934 N/A
5:22 am 05:22 Cloudy 52 11.1 48 8.9 86 86 NNE 12 19 29.91 1013 10 16.0934 N/A
5:43 am 05:43 Cloudy 51 10.6 47 8.3 86 86 NW 7 11 29.93 1013 10 16.0934 N/A
5:53 am 05:53 Cloudy 51 10.6 47 8.3 86 86 NNW 7 11 29.91 1013 10 16.0934 N/A
6:28 am 06:28 Cloudy 52 11 48 9 88 88 NNW 9 15 29.93 1014 10 16.0934 N/A
6:53 am 06:53 Cloudy 52 11.1 48 8.9 86 86 NNW 9 15 29.93 1013 10 16.0934 N/A
7:04 am 07:04 Cloudy 52 11 48 9 88 88 WNW 5 7 29.95 1014 10 16.0934 N/A
7:53 am 07:53 Cloudy 54 12.2 48 8.9 80 80 VRB 5 7 29.94 1014 10 16.0934 N/A
8:53 am 08:53 Cloudy 55 12.8 49 9.4 80 80 N 9 15 29.96 1014 10 16.0934 N/A
9:53 am 09:53 Cloudy 56 13.3 49 9.4 77 77 NNE 12 19 29.96 1015 10 16.0934 N/A
10:53 am 10:53 Cloudy 56 13.3 48 8.9 75 75 N 8 13 29.98 1015 10 16.0934 N/A
11:04 am 11:04 Cloudy 57 13.9 49 9.4 74 74 N 10 17 29.94 1014 10 16.0934 N/A
11:53 am 11:53 Cloudy 59 15 49 9.4 69 69 NNE 13 20 29.97 1015 10 16.0934 N/A
12:53 pm 12:53 Cloudy 60 15.6 49 9.4 67 67 N 6 9 29.96 1015 10 16.0934 N/A
1:18 pm 13:18 Cloudy 61 16.1 50 10 67 67 ENE 12 19 29.91 1013 10 16.0934 N/A
1:53 pm 13:53 Cloudy 62 16.7 51 10.6 67 67 E 12 19 29.96 1014 10 16.0934 N/A
2:53 pm 14:53 Mostly Cloudy 66 18.9 49 9.4 54 54 ENE 12 19 29.93 1014 10 16.0934 N/A
3:53 pm 15:53 Partly Cloudy 69 20.6 49 9.4 49 49 ENE 15 24 29.93 1014 10 16.0934 N/A
4:53 pm 16:53 Partly Cloudy 67 19.4 49 9.4 53 53 E 9 15 29.93 1014 10 16.0934 N/A
5:53 pm 17:53 Mostly Cloudy 66 18.9 50 10 56 56 ENE 9 15 29.93 1014 10 16.0934 N/A
6:53 pm 18:53 Sunny 66 18.9 47 8.3 50 50 E 8 13 29.92 1013 10 16.0934 N/A
7:53 pm 19:53 Sunny 58 14.4 51 10.6 78 78 ENE 5 7 29.94 1014 10 16.0934 N/A
8:53 pm 20:53 Clear 55 12.8 48 8.9 77 77 ENE 8 13 29.96 1014 10 16.0934 N/A
9:53 pm 21:53 Clear 56 13.3 49 9.4 77 77 N N/A 29.97 1015 10 16.0934 N/A
10:53 pm 22:53 Clear 53 11.7 47 8.3 80 80 N N/A 29.98 1015 10 16.0934 N/A
11:53 pm 23:53 Clear 51 10.6 46 7.8 83 83 N N/A 29.98 1015 10 16.0934 N/A

Powered by AerisWeather